Flag for Spain Weather past 2 weeks in Mahón, Menorca, Spain

Now
74 °F

Mild.


Feels Like: 77 °F
Forecast: 58 / 72 °F
Wind: 9 mph from Southeast

Location: Menorca / Mahon

Current Time: May 29, 2015 at 12:55:01 PM

Latest Report: May 29, 2015 at 12:00 PM


Visibility: N/A

Pressure: 30.02 "Hg

Humidity: 42%

Dew point: 49 °F

Location of MahónLocation

Historic Weather in Mahón — Graph

°F

Mahón temperature yesterday

Maximum temperature yesterday: 76 °F (at 4:00 PM)
Minimum temperature yesterday: 56 °F (at 1:00 AM)
Average temperature yesterday: 67 °F

Past Weeks' High & Low Weather Summary

 TemperatureHumidityPressure
High83 °F (May 14, 5:00 PM)96% (May 15, 10:00 PM)30.25 "Hg (May 15, 10:00 PM)
Low53 °F (May 21, 2:00 AM)29% (May 22, 2:00 PM)29.79 "Hg (May 14, 8:00 PM)
Average65 °F64%30.05 "Hg
* Reported May 14 11:00 AM — May 29 11:00 AM, Mahón, Weather by CustomWeather, © 2015

Note: Actual official high and low records may vary slightly from our data, if they occured in-between our weather recording intervals... More about our weather records

Advertising

Mahón weather history for previous 24 hours

 ConditionsComfort  
Time TempWeatherWind HumidityBarometerVisibility
11:00 AM
Fri, May 29
74 °FPassing clouds.7 mph45%30.03 "Hg16 mi
10:00 AM72 °FMild.3 mph51%30.03 "HgN/A
9:00 AM67 °FPassing clouds.3 mph71%30.03 "Hg16 mi
8:00 AM64 °FFog.2 mph89%30.02 "Hg6 mi
7:00 AM59 °FFog.2 mph96%30.02 "HgN/A
6:00 AM55 °FFog.No wind96%30.02 "HgN/A
5:00 AM56 °FPassing clouds.No wind93%30.03 "Hg12 mi
4:00 AM59 °FFog.1 mph92%30.04 "HgN/A
3:00 AM61 °FCool.3 mph94%30.06 "HgN/A
2:00 AM61 °FCool.2 mph92%30.07 "HgN/A
12:00 AM62 °FCool.5 mph90%30.09 "HgN/A
10:00 PM
Thu, May 28
63 °FMild.1 mph85%30.08 "HgN/A
9:00 PM66 °FMild.3 mph78%30.08 "HgN/A
8:00 PM70 °FPassing clouds.5 mph71%30.09 "Hg16 mi
7:00 PM72 °FMild.7 mph64%30.09 "HgN/A
6:00 PM74 °FMild.9 mph60%30.10 "HgN/A
5:00 PM74 °FPassing clouds.10 mph58%30.11 "Hg17 mi
4:00 PM76 °FMild.8 mph48%30.12 "HgN/A
3:00 PM75 °FScattered clouds.9 mph57%30.14 "Hg17 mi
2:00 PM76 °FScattered clouds.8 mph53%30.14 "Hg17 mi
12:00 PM74 °FMild.12 mph58%30.14 "HgN/A
Weather by CustomWeather, © 2015

See weather overviewHow to use our weather pages